Location: Haram ta Haram Freeway
(35.0583°N, 51.4202°E)
Time: 17:38:34
(UTC+03:30)

IRIDIUM 33 DEB - Pass Details

Date: 06 December 2021
Orbit: 663 x 816 km, 86.4° (Epoch: 18 January)

Event Time Altitude Azimuth Distance (km) Brightness Sun altitude
Rises 17:13:50 0° 133° (SE) 3,338 ? -4.8°
Reaches altitude 10° 17:17:30 10° 108° (ESE) 2,397 ? -5.5°
Maximum altitude 17:20:01 14° 80° (E) 2,148 ? -6.0°
Drops below altitude 10° 17:22:31 10° 51° (NE) 2,373 ? -6.4°
Enters shadow 17:26:20 -1° 25° (NNE) 3,359 ? -7.1°
